Mansfield, OH

3:53 AM EST on November 18, 2017 (GMT -0500)
Mansfield Lahm Regional

Weather History for KMFD - June, 2013

Change the Weather History Date:

Friday, June 21, 2013

  Actual Average Record
Temperature  
Mean Temperature 72 °F 69 °F  
Max Temperature 84 °F 80 °F 96 °F (1988)
Min Temperature 59 °F 59 °F 40 °F (1940)
Degree Days  
Heating Degree Days 0 1  
Month to date heating degree days 39 46  
Since 1 June heating degree days 39 46  
Since 1 July heating degree days 6021 6263  
Cooling Degree Days 7 5  
Month to date cooling degree days 65 81  
Year to date cooling degree days 160 127  
Since 1 June cooling degree days 65 81  
Growing Degree Days 21 (Base 50)    
Moisture  
Dew Point 57 °F    
Average Humidity 59    
Maximum Humidity 78    
Minimum Humidity 40    
Precipitation  
Precipitation 0.00 in 0.15 in 1.88 in (1979)
Month to date precipitation 5.06 3.40  
Year to date precipitation 18.93 20.73  
Snow  
Snow 0.00 in 0.00 in - ()
Month to date snowfall 0.0 0.0  
Since 1 June snowfall 0.0 0.0  
Since 1 July snowfall 39.4 48.3  
Snow Depth 0.00 in    
Sea Level Pressure  
Sea Level Pressure 30.20 in    
Wind  
Wind Speed 7 mph (SSE)    
Max Wind Speed 15 mph    
Max Gust Speed 25 mph    
Visibility 10 miles    
Events      
T = Trace of Precipitation, MM = Missing Value Source: NWS Daily Summary

Daily Weather History Graph

Daily Weather History Graph

Search for Another Location

Airport or City:

Trip Planner

Search our weather history database for the weather conditions in past years. The results will help you decide how hot, cold, wet, or windy it might be!

Date:

Astronomy

Jun. 21, 2013 Rise Set
Actual Time 5:58 AM EDT 9:05 PM EDT
Civil Twilight 5:25 AM EDT 9:38 PM EDT
Nautical Twilight 4:42 AM EDT 10:21 PM EDT
Astronomical Twilight 3:51 AM EDT 11:12 PM EDT
Moon 7:13 PM EDT (6/21) 4:13 AM EDT (6/21)
Length of Visible Light 16h 13m
Length of Day
15h 06m
Waxing Gibbous, 95% of the Moon is Illuminated
Jun 21
Waxing Gibbous
Jun 23
Full
Jun 30
Last Quarter
Jul 8
New
Jul 15
First Quarter

Hourly Weather History & Observations

Time (EDT) Temp. Heat Index Dew Point Humidity Pressure Visibility Wind Dir Wind Speed Gust Speed Precip Events Conditions
12:52 AM 64.9 °F - 55.9 °F 73% 30.21 in 10.0 mi South 8.1 mph - N/A   Clear
1:52 AM 64.9 °F - 55.0 °F 70% 30.22 in 10.0 mi SSE 5.8 mph - N/A   Clear
2:52 AM 61.0 °F - 54.0 °F 78% 30.22 in 10.0 mi South 5.8 mph - N/A   Clear
3:52 AM 62.1 °F - 54.0 °F 75% 30.22 in 10.0 mi SSE 4.6 mph - N/A   Clear
4:52 AM 61.0 °F - 54.0 °F 78% 30.22 in 10.0 mi South 4.6 mph - N/A   Clear
5:52 AM 60.1 °F - 54.0 °F 80% 30.22 in 10.0 mi Calm Calm - N/A   Clear
6:52 AM 62.1 °F - 55.0 °F 78% 30.23 in 10.0 mi South 4.6 mph - N/A   Clear
7:52 AM 68.0 °F - 55.9 °F 65% 30.24 in 10.0 mi South 5.8 mph - N/A   Clear
8:52 AM 72.0 °F - 57.0 °F 59% 30.23 in 10.0 mi SSE 5.8 mph - N/A   Clear
9:52 AM 75.9 °F - 57.0 °F 52% 30.24 in 10.0 mi South 4.6 mph - N/A   Clear
10:52 AM 79.0 °F - 55.0 °F 44% 30.25 in 10.0 mi SW 5.8 mph - N/A   Partly Cloudy
11:52 AM 81.0 °F 80.8 °F 55.9 °F 42% 30.24 in 10.0 mi South 8.1 mph - N/A   Clear
12:52 PM 82.0 °F 81.4 °F 55.0 °F 39% 30.25 in 10.0 mi SSW 5.8 mph - N/A   Clear
1:52 PM 82.0 °F 82.0 °F 57.9 °F 44% 30.22 in 10.0 mi SE 8.1 mph - N/A   Clear
2:52 PM 82.0 °F 82.0 °F 57.9 °F 44% 30.22 in 10.0 mi SSE 10.4 mph - N/A   Scattered Clouds
3:52 PM 82.9 °F 82.4 °F 57.0 °F 41% 30.20 in 10.0 mi SE 13.8 mph - N/A   Partly Cloudy
4:52 PM 82.9 °F 82.4 °F 57.0 °F 41% 30.18 in 10.0 mi SE 10.4 mph - N/A   Partly Cloudy
5:52 PM 82.9 °F 82.4 °F 57.0 °F 41% 30.18 in 10.0 mi SSW 9.2 mph - N/A   Partly Cloudy
6:52 PM 82.0 °F 82.0 °F 57.9 °F 44% 30.17 in 10.0 mi SSE 6.9 mph - N/A   Scattered Clouds
7:52 PM 79.0 °F - 59.0 °F 50% 30.16 in 10.0 mi SSE 5.8 mph - N/A   Clear
8:52 PM 75.0 °F - 60.1 °F 60% 30.15 in 10.0 mi SSE 6.9 mph - N/A   Clear
9:52 PM 72.0 °F - 60.1 °F 66% 30.15 in 10.0 mi SE 6.9 mph - N/A   Clear
10:52 PM 71.1 °F - 60.1 °F 68% 30.14 in 10.0 mi SSE 6.9 mph - N/A   Clear
11:52 PM 70.0 °F - 59.0 °F 68% 30.15 in 10.0 mi SSE 6.9 mph - N/A   Clear